Location: Knowlton
(51.2333°N, 1.2667°E)
Time: 19:18:06
(UTC+00:00)

XW-2F - Visible Passes

Search period start: 07 December 2021 00:00
Search period end: 17 December 2021 00:00
Orbit: 497 x 514 km, 97.5° (Epoch: 07 December)

Date Brightness Start Highest point End Pass type
(mag) Time Alt. Az. Time Alt. Az. Time Alt. Az.
07 Dec ? 06:12:12 10° NNE 06:15:58 70° ESE 06:19:43 10° S visible
07 Dec ? 16:55:44 10° SSE 16:59:26 67° ENE 17:03:11 10° N visible
07 Dec ? 18:32:01 10° WSW 18:33:44 13° W 18:35:29 10° WNW visible
08 Dec ? 05:54:30 10° NNE 05:58:08 44° E 06:01:44 10° S visible
08 Dec ? 16:38:08 10° SE 16:41:41 42° ENE 16:45:16 10° N visible
08 Dec ? 18:13:01 10° SW 18:15:45 19° W 18:18:30 10° NW visible
09 Dec ? 05:36:54 10° NNE 05:40:14 29° E 05:43:32 10° SSE visible
09 Dec ? 17:54:32 10° SSW 17:57:48 28° W 18:01:07 10° NW visible
10 Dec ? 05:19:30 10° NE 05:22:17 19° E 05:25:02 10° SE visible
10 Dec ? 06:52:45 10° N 06:56:21 42° WNW 06:59:55 10° SW visible
10 Dec ? 17:36:19 10° S 17:39:54 43° W 17:43:32 10° NNW visible
11 Dec ? 05:02:31 10° ENE 05:04:17 13° E 05:06:03 10° ESE visible
11 Dec ? 06:34:50 10° N 06:38:36 67° WNW 06:42:18 10° SSW visible
11 Dec ? 17:18:18 10° S 17:22:02 69° WSW 17:25:49 10° NNW visible
12 Dec ? 06:17:00 10° NNE 06:20:46 79° E 06:24:31 10° S visible
12 Dec ? 17:00:29 10° SSE 17:04:12 75° ENE 17:07:59 10° N visible
12 Dec ? 18:37:16 10° WSW 18:38:34 11° W 18:39:53 10° WNW visible
13 Dec ? 05:59:14 10° NNE 06:02:55 49° E 06:06:33 10° S visible
13 Dec ? 16:42:48 10° SE 16:46:25 48° ENE 16:50:04 10° N visible
13 Dec ? 18:18:00 10° SW 18:20:33 17° W 18:23:07 10° NW visible
14 Dec ? 05:41:35 10° NNE 05:45:00 32° E 05:48:23 10° SSE visible
14 Dec ? 16:25:19 10° SE 16:28:40 32° ENE 16:32:02 10° N visible
14 Dec ? 17:59:23 10° SSW 18:02:33 26° W 18:05:46 10° NW visible
15 Dec ? 05:24:05 10° NE 05:27:02 21° E 05:29:56 10° SE visible
15 Dec ? 06:57:31 10° N 07:01:02 38° WNW 07:04:31 10° SW visible
15 Dec ? 17:41:05 10° SSW 17:44:36 39° W 17:48:11 10° NNW visible
16 Dec ? 05:06:55 10° NE 05:09:01 14° E 05:11:05 10° ESE visible
16 Dec ? 06:39:32 10° N 06:43:15 59° WNW 06:46:56 10° SSW visible
16 Dec ? 17:22:59 10° S 17:26:42 62° W 17:30:27 10° NNW visible
